Lincoln, IL

10:25 PM CST on January 20, 2017 (GMT -0600)
Lincoln

Weather History for KAAA - May, 2012

Change the Weather History Date:

Friday, May 11, 2012

  Actual Average (KSPI) Record (KSPI)
Temperature  
Mean Temperature 64 °F -  
Max Temperature 78 °F 73 °F 91 °F (2011)
Min Temperature 49 °F 52 °F 33 °F (1907)
Degree Days  
Heating Degree Days 2    
Growing Degree Days 14 (Base 50)    
Moisture  
Dew Point 42 °F    
Average Humidity 46    
Maximum Humidity 79    
Minimum Humidity 24    
Precipitation  
Precipitation 0.00 in - - ()
Sea Level Pressure  
Sea Level Pressure 30.11 in    
Wind  
Wind Speed 5 mph (South)    
Max Wind Speed 14 mph    
Max Gust Speed 20 mph    
Visibility 10 miles    
Events      
Averages and records for this station are not official NWS values.
T = Trace of Precipitation, MM = Missing Value Source: NWS Daily Summary

Daily Weather History Graph

Daily Weather History Graph

Search for Another Location

Airport or City:

Trip Planner

Search our weather history database for the weather conditions in past years. The results will help you decide how hot, cold, wet, or windy it might be!

Date:

Astronomy

May. 11, 2012 Rise Set
Actual Time 5:45 AM CDT 8:02 PM CDT
Civil Twilight 5:14 AM CDT 8:33 PM CDT
Nautical Twilight 4:37 AM CDT 9:11 PM CDT
Astronomical Twilight 3:55 AM CDT 9:52 PM CDT
Moon 12:42 AM CDT (5/11) 11:17 AM CDT (5/11)
Length of Visible Light 15h 18m
Length of Day
14h 17m
Waning Gibbous, 63% of the Moon is Illuminated
May 11
Waning Gibbous
May 12
Last Quarter
May 20
New
May 28
First Quarter
Jun 4
Full

Hourly Weather History & Observations

Time (CDT) Temp. Dew Point Humidity Pressure Visibility Wind Dir Wind Speed Gust Speed Precip Events Conditions
12:15 AM 57.0 °F 44.2 °F 62% 30.03 in 10.0 mi Calm Calm - N/A   Clear
12:35 AM 55.4 °F 44.4 °F 67% 30.04 in 10.0 mi East 5.8 mph - N/A   Clear
12:55 AM 56.8 °F 44.1 °F 62% 30.05 in 10.0 mi East 5.8 mph - N/A   Clear
1:15 AM 54.7 °F 42.8 °F 64% 30.05 in 10.0 mi East 4.6 mph - N/A   Clear
1:35 AM 53.8 °F 42.3 °F 65% 30.05 in 10.0 mi Calm Calm - N/A   Clear
1:55 AM 52.9 °F 41.9 °F 66% 30.05 in 10.0 mi Calm Calm - N/A   Clear
2:15 AM 52.7 °F 41.9 °F 67% 30.05 in 10.0 mi Calm Calm - N/A   Clear
2:35 AM 53.1 °F 41.5 °F 65% 30.05 in 10.0 mi SE 3.5 mph - N/A   Clear
2:55 AM 52.5 °F 41.9 °F 67% 30.06 in 10.0 mi ESE 3.5 mph - N/A   Clear
3:15 AM 51.6 °F 42.1 °F 70% 30.06 in 10.0 mi East 4.6 mph - N/A   Clear
3:35 AM 50.9 °F 42.4 °F 73% 30.06 in 10.0 mi Calm Calm - N/A   Clear
3:55 AM 51.4 °F 43.0 °F 73% 30.06 in 10.0 mi ESE 4.6 mph - N/A   Clear
4:15 AM 51.4 °F 43.2 °F 73% 30.06 in 10.0 mi East 3.5 mph - N/A   Clear
4:35 AM 51.3 °F 43.3 °F 74% 30.06 in 10.0 mi SE 3.5 mph - N/A   Clear
4:55 AM 50.9 °F 43.3 °F 75% 30.07 in 10.0 mi Calm Calm - N/A   Clear
5:15 AM 50.4 °F 43.3 °F 77% 30.08 in 10.0 mi Calm Calm - N/A   Clear
5:35 AM 49.3 °F 43.2 °F 79% 30.09 in 10.0 mi Calm Calm - N/A   Clear
5:55 AM 50.0 °F 43.3 °F 78% 30.09 in 10.0 mi Calm Calm - N/A   Clear
6:15 AM 50.0 °F 43.2 °F 77% 30.10 in 10.0 mi Calm Calm - N/A   Clear
6:35 AM 51.8 °F 43.7 °F 74% 30.11 in 10.0 mi Calm Calm - N/A   Clear
6:55 AM 53.6 °F 44.4 °F 71% 30.12 in 10.0 mi Calm Calm - N/A   Clear
7:15 AM 55.6 °F 45.7 °F 69% 30.12 in 10.0 mi Calm Calm - N/A   Clear
7:35 AM 58.1 °F 46.0 °F 64% 30.12 in 10.0 mi SSE 4.6 mph - N/A   Clear
7:55 AM 61.2 °F 46.2 °F 58% 30.12 in 10.0 mi SSE 4.6 mph - N/A   Clear
8:15 AM 63.7 °F 43.0 °F 47% 30.13 in 10.0 mi South 9.2 mph - N/A   Clear
8:35 AM 65.1 °F 42.6 °F 44% 30.13 in 10.0 mi South 10.4 mph - N/A   Clear
8:55 AM 67.3 °F 42.1 °F 40% 30.14 in 10.0 mi South 11.5 mph 16.1 mph N/A   Clear
9:15 AM 68.9 °F 41.5 °F 37% 30.14 in 10.0 mi South 8.1 mph - N/A   Clear
9:35 AM 70.0 °F 40.3 °F 34% 30.13 in 10.0 mi SSW 8.1 mph - N/A   Clear
9:55 AM 71.2 °F 40.1 °F 32% 30.14 in 10.0 mi SSW 9.2 mph 19.6 mph N/A   Clear
10:15 AM 72.3 °F 39.9 °F 31% 30.13 in 10.0 mi South 11.5 mph - N/A   Clear
10:35 AM 72.9 °F 39.0 °F 29% 30.14 in 10.0 mi South 13.8 mph 19.6 mph N/A   Clear
10:55 AM 73.0 °F 39.6 °F 30% 30.14 in 10.0 mi South 9.2 mph - N/A   Clear
11:15 AM 73.4 °F 39.0 °F 29% 30.14 in 10.0 mi South 12.7 mph - N/A   Clear
11:35 AM 75.2 °F 40.5 °F 29% 30.13 in 10.0 mi SSW 8.1 mph - N/A   Clear
11:55 AM 74.7 °F 40.3 °F 29% 30.13 in 10.0 mi SSW 6.9 mph 17.3 mph N/A   Clear
12:15 PM 75.6 °F 40.1 °F 28% 30.12 in 10.0 mi South 10.4 mph - N/A   Clear
12:35 PM 75.4 °F 39.0 °F 27% 30.11 in 10.0 mi South 9.2 mph 19.6 mph N/A   Clear
12:55 PM 77.0 °F 39.7 °F 26% 30.12 in 10.0 mi South 8.1 mph - N/A   Clear
1:15 PM 76.8 °F 39.9 °F 27% 30.11 in 10.0 mi South 10.4 mph 16.1 mph N/A   Clear
1:35 PM 77.0 °F 39.2 °F 26% 30.11 in 10.0 mi South 6.9 mph 17.3 mph N/A   Clear
1:55 PM 77.2 °F 38.8 °F 25% 30.11 in 10.0 mi South 5.8 mph - N/A   Clear
2:15 PM 77.9 °F 39.9 °F 26% 30.11 in 10.0 mi SSE 8.1 mph 17.3 mph N/A   Clear
2:35 PM 77.9 °F 37.9 °F 24% 30.11 in 10.0 mi South 8.1 mph 16.1 mph N/A   Clear
2:55 PM 78.8 °F 38.5 °F 24% 30.12 in 10.0 mi South 10.4 mph - N/A   Scattered Clouds
3:15 PM 78.1 °F 39.7 °F 25% 30.11 in 10.0 mi SSW 11.5 mph 18.4 mph N/A   Scattered Clouds
3:35 PM 78.3 °F 39.9 °F 25% 30.11 in 10.0 mi SSW 8.1 mph 18.4 mph N/A   Clear
3:55 PM 77.2 °F 39.4 °F 26% 30.10 in 10.0 mi South 8.1 mph - N/A   Clear
4:15 PM 77.9 °F 38.7 °F 24% 30.10 in 10.0 mi South 8.1 mph - N/A   Clear
4:35 PM 77.9 °F 38.8 °F 25% 30.11 in 10.0 mi SSW 6.9 mph - N/A   Clear
4:55 PM 77.7 °F 39.9 °F 26% 30.11 in 10.0 mi SSW 6.9 mph - N/A   Clear
5:15 PM 76.5 °F 40.1 °F 27% 30.11 in 10.0 mi South 11.5 mph 16.1 mph N/A   Clear
5:35 PM 76.1 °F 39.9 °F 27% 30.11 in 10.0 mi South 10.4 mph - N/A   Clear
5:55 PM 75.4 °F 39.9 °F 28% 30.11 in 10.0 mi South 10.4 mph - N/A   Clear
6:15 PM 75.0 °F 40.5 °F 29% 30.11 in 10.0 mi South 8.1 mph - N/A   Clear
6:35 PM 74.3 °F 41.5 °F 31% 30.11 in 10.0 mi South 11.5 mph - N/A   Clear
6:55 PM 73.4 °F 41.4 °F 31% 30.10 in 10.0 mi South 8.1 mph - N/A   Clear
7:15 PM 72.7 °F 41.5 °F 32% 30.11 in 10.0 mi South 9.2 mph - N/A   Clear
7:35 PM 71.6 °F 42.1 °F 34% 30.11 in 10.0 mi South 6.9 mph - N/A   Clear
7:55 PM 70.9 °F 42.1 °F 35% 30.11 in 10.0 mi South 6.9 mph - N/A   Clear
8:15 PM 69.8 °F 42.8 °F 38% 30.12 in 10.0 mi South 6.9 mph - N/A   Clear
8:35 PM 68.4 °F 43.0 °F 40% 30.13 in 10.0 mi South 4.6 mph - N/A   Clear
8:55 PM 67.3 °F 44.1 °F 43% 30.13 in 10.0 mi South 3.5 mph - N/A   Clear
9:15 PM 66.4 °F 44.6 °F 45% 30.14 in 10.0 mi South 3.5 mph - N/A   Clear
9:35 PM 66.0 °F 44.8 °F 46% 30.14 in 10.0 mi South 3.5 mph - N/A   Clear
9:55 PM 65.3 °F 45.1 °F 48% 30.15 in 10.0 mi South 4.6 mph - N/A   Clear
10:15 PM 64.6 °F 45.3 °F 50% 30.15 in 10.0 mi South 4.6 mph - N/A   Clear
10:35 PM 63.9 °F 45.7 °F 52% 30.15 in 10.0 mi South 4.6 mph - N/A   Clear
10:55 PM 63.1 °F 45.9 °F 53% 30.15 in 10.0 mi Calm Calm - N/A   Clear
11:15 PM 62.6 °F 46.0 °F 55% 30.15 in 10.0 mi South 3.5 mph - N/A   Clear
11:35 PM 63.1 °F 46.6 °F 55% 30.15 in 10.0 mi South 5.8 mph - N/A   Clear
11:55 PM 63.5 °F 46.6 °F 54% 30.15 in 10.0 mi South 6.9 mph - N/A   Clear